AFL1430 UNNT-UNBB

Flight info

Callsign AFL1430
Flight time 0h 26m
Altitude 23000
Route ALIRO
Aircraft A320/M-SDE3FGHIRWY/LB1

Departure

Time 2026-04-21 04:34
Airport Novosibirsk Tolmachevo Airport (UNNT)

Arrival

Time 2026-04-21 05:00
Airport Barnaul Gherman Titov International Airport (UNBB)
Time Latitude Longitude Altitude Speed Heading
2026-04-21 04:30 55.01068 82.66329 373 ft 0 kts 171°
2026-04-21 04:31 55.01067 82.66330 373 ft 1 kts 171°
2026-04-21 04:31 55.01048 82.66335 373 ft 5 kts 171°
2026-04-21 04:32 55.01026 82.66396 373 ft 9 kts 78°
2026-04-21 04:32 55.01054 82.66524 373 ft 14 kts 67°
2026-04-21 04:32 55.01121 82.66654 373 ft 17 kts
2026-04-21 04:32 55.01253 82.66623 373 ft 21 kts 351°
2026-04-21 04:33 55.01375 82.66554 375 ft 16 kts 289°
2026-04-21 04:33 55.01360 82.66331 373 ft 27 kts 261°
2026-04-21 04:33 55.01291 82.65590 373 ft 96 kts 261°
2026-04-21 04:33 55.01157 82.64099 377 ft 150 kts 261°
2026-04-21 04:34 55.00986 82.62235 891 ft 155 kts 260°
2026-04-21 04:34 55.00795 82.60348 1515 ft 161 kts 260°
2026-04-21 04:34 55.00592 82.58350 2069 ft 177 kts 259°
2026-04-21 04:34 55.00364 82.56113 2441 ft 199 kts 260°
2026-04-21 04:35 55.00483 82.53573 2784 ft 224 kts 296°
2026-04-21 04:35 55.01629 82.51591 3284 ft 249 kts 335°
2026-04-21 04:35 55.03379 82.51270 4115 ft 263 kts 11°
2026-04-21 04:35 55.04980 82.52849 5038 ft 275 kts 45°
2026-04-21 04:36 55.05851 82.55848 5933 ft 286 kts 79°
2026-04-21 04:36 55.05664 82.59295 6760 ft 292 kts 114°
2026-04-21 04:36 55.04608 82.62331 7608 ft 295 kts 127°
2026-04-21 04:36 55.03423 82.65286 8474 ft 300 kts 127°
2026-04-21 04:37 55.02216 82.68282 9319 ft 304 kts 127°
2026-04-21 04:37 55.00988 82.71323 10135 ft 310 kts 127°
2026-04-21 04:37 54.99783 82.74603 10462 ft 334 kts 119°
2026-04-21 04:37 54.98779 82.78419 10742 ft 357 kts 112°
2026-04-21 04:38 54.97930 82.82544 11328 ft 367 kts 109°
2026-04-21 04:38 54.97142 82.86807 12038 ft 373 kts 108°
2026-04-21 04:38 54.96348 82.91140 12739 ft 379 kts 108°
2026-04-21 04:38 54.95510 82.95521 13425 ft 384 kts 110°
2026-04-21 04:39 54.94268 82.99648 14048 ft 388 kts 129°
2026-04-21 04:39 54.92384 83.02968 14687 ft 386 kts 147°
2026-04-21 04:39 54.90064 83.05232 15341 ft 381 kts 164°
2026-04-21 04:39 54.87523 83.06335 16000 ft 375 kts 180°
2026-04-21 04:40 54.84941 83.06257 16658 ft 368 kts 194°
2026-04-21 04:40 54.82409 83.05545 17321 ft 370 kts 195°
2026-04-21 04:40 54.79823 83.04808 17985 ft 373 kts 195°
2026-04-21 04:40 54.77251 83.04079 18562 ft 377 kts 195°
2026-04-21 04:41 54.74649 83.03347 19122 ft 379 kts 195°
2026-04-21 04:41 54.72032 83.02617 19675 ft 382 kts 195°
2026-04-21 04:41 54.69397 83.01880 20218 ft 385 kts 196°
2026-04-21 04:41 54.66747 83.01135 20755 ft 388 kts 196°
2026-04-21 04:42 54.64071 83.00382 21287 ft 391 kts 196°
2026-04-21 04:42 54.61372 82.99631 21815 ft 394 kts 196°
2026-04-21 04:42 54.58651 82.98882 22328 ft 397 kts 196°
2026-04-21 04:42 54.55921 82.98127 22808 ft 400 kts 196°
2026-04-21 04:43 54.53161 82.97364 22957 ft 402 kts 196°
2026-04-21 04:43 54.50402 82.96603 22978 ft 402 kts 196°
2026-04-21 04:43 54.47636 82.95837 22982 ft 402 kts 196°
2026-04-21 04:43 54.44878 82.95074 22986 ft 403 kts 196°
2026-04-21 04:44 54.42106 82.94316 22983 ft 403 kts 195°
2026-04-21 04:44 54.39279 82.94030 22985 ft 412 kts 185°
2026-04-21 04:44 54.36396 82.94656 22994 ft 422 kts 173°
2026-04-21 04:44 54.33559 82.96041 22988 ft 426 kts 169°
2026-04-21 04:45 54.30747 82.97504 22606 ft 419 kts 169°
2026-04-21 04:45 54.27980 82.98942 22072 ft 411 kts 169°
2026-04-21 04:45 54.25288 83.00339 21602 ft 399 kts 169°
2026-04-21 04:45 54.22649 83.01696 21123 ft 395 kts 169°
2026-04-21 04:46 54.20019 83.03039 20645 ft 392 kts 169°
2026-04-21 04:46 54.17421 83.04358 20161 ft 389 kts 169°
2026-04-21 04:46 54.14827 83.05674 19674 ft 387 kts 169°
2026-04-21 04:46 54.12252 83.06979 19169 ft 385 kts 169°
2026-04-21 04:47 54.09655 83.08292 18675 ft 384 kts 169°
2026-04-21 04:47 54.07096 83.09589 18157 ft 383 kts 169°
2026-04-21 04:47 54.04545 83.10883 17618 ft 381 kts 169°
2026-04-21 04:47 54.02007 83.12173 17126 ft 379 kts 168°
2026-04-21 04:48 53.99489 83.13454 16625 ft 376 kts 168°
2026-04-21 04:48 53.96991 83.14721 16135 ft 374 kts 168°
2026-04-21 04:48 53.94500 83.15976 15647 ft 373 kts 168°
2026-04-21 04:48 53.92020 83.17222 15159 ft 371 kts 168°
2026-04-21 04:49 53.89551 83.18463 14666 ft 369 kts 168°
2026-04-21 04:49 53.87095 83.19697 14176 ft 365 kts 168°
2026-04-21 04:49 53.84709 83.20896 13689 ft 350 kts 168°
2026-04-21 04:49 53.82419 83.22051 13203 ft 336 kts 168°
2026-04-21 04:50 53.80227 83.23205 12756 ft 325 kts 163°
2026-04-21 04:50 53.78205 83.24876 12313 ft 325 kts 151°
2026-04-21 04:50 53.76405 83.27201 11874 ft 328 kts 139°
2026-04-21 04:50 53.74881 83.30090 11433 ft 330 kts 131°
2026-04-21 04:51 53.73429 83.33103 10963 ft 331 kts 131°
2026-04-21 04:51 53.71969 83.36116 10497 ft 332 kts 131°
2026-04-21 04:51 53.70519 83.39105 10331 ft 323 kts 131°
2026-04-21 04:51 53.69121 83.41986 10210 ft 313 kts 131°
2026-04-21 04:52 53.67759 83.44790 10032 ft 306 kts 131°
2026-04-21 04:52 53.66421 83.47536 9827 ft 300 kts 131°
2026-04-21 04:52 53.65091 83.50263 9374 ft 301 kts 131°
2026-04-21 04:52 53.63777 83.52958 8834 ft 296 kts 131°
2026-04-21 04:53 53.62480 83.55618 8289 ft 292 kts 131°
2026-04-21 04:53 53.61196 83.58258 7762 ft 289 kts 131°
2026-04-21 04:53 53.59928 83.60862 7223 ft 286 kts 131°
2026-04-21 04:53 53.58651 83.63469 6700 ft 283 kts 131°
2026-04-21 04:54 53.57416 83.65978 6173 ft 281 kts 131°
2026-04-21 04:54 53.56160 83.68522 5650 ft 278 kts 131°
2026-04-21 04:54 53.54928 83.71025 5137 ft 277 kts 131°
2026-04-21 04:54 53.53703 83.73516 4617 ft 275 kts 132°
2026-04-21 04:55 53.52358 83.75603 4446 ft 250 kts 148°
2026-04-21 04:55 53.50895 83.76930 4383 ft 232 kts 161°
2026-04-21 04:55 53.49405 83.77955 4331 ft 231 kts 160°
2026-04-21 04:55 53.47926 83.78977 4241 ft 230 kts 160°
2026-04-21 04:56 53.46447 83.80002 4126 ft 229 kts 160°
2026-04-21 04:56 53.44962 83.80956 4031 ft 227 kts 171°
2026-04-21 04:56 53.43452 83.80726 3798 ft 218 kts 213°
2026-04-21 04:56 53.42530 83.79071 4261 ft 187 kts 241°
2026-04-21 04:57 53.41937 83.77080 4431 ft 196 kts 246°
2026-04-21 04:57 53.41392 83.74876 3800 ft 213 kts 249°
2026-04-21 04:57 53.40823 83.72462 3088 ft 230 kts 250°
2026-04-21 04:57 53.40240 83.69994 2604 ft 225 kts 250°
2026-04-21 04:58 53.39679 83.67559 2167 ft 221 kts 249°
2026-04-21 04:58 53.39118 83.65233 1871 ft 210 kts 248°
2026-04-21 04:58 53.38574 83.63033 1627 ft 200 kts 248°
2026-04-21 04:58 53.38056 83.60946 1423 ft 186 kts 247°
2026-04-21 04:59 53.37573 83.59000 1213 ft 171 kts 248°
2026-04-21 04:59 53.37148 83.57291 1044 ft 151 kts 248°
2026-04-21 04:59 53.36758 83.55720 849 ft 139 kts 248°
2026-04-21 04:59 53.36429 83.54363 832 ft 114 kts 245°
2026-04-21 05:00 53.36177 83.53386 833 ft 67 kts 247°
2026-04-21 05:00 53.36060 83.52918 835 ft 30 kts 246°
2026-04-21 05:00 53.35943 83.52521 835 ft 8 kts 314°
2026-04-21 05:01 53.35974 83.52561 835 ft 9 kts 69°
2026-04-21 05:01 53.36005 83.52705 835 ft 18 kts 69°
2026-04-21 05:01 53.36064 83.52946 834 ft 27 kts 68°
2026-04-21 05:01 53.36098 83.53188 832 ft 20 kts 123°
2026-04-21 05:02 53.35998 83.53276 826 ft 17 kts 133°
2026-04-21 05:02 53.36017 83.53478 827 ft 22 kts 69°
2026-04-21 05:02 53.36086 83.53756 834 ft 30 kts 67°
2026-04-21 05:02 53.36173 83.54111 832 ft 36 kts 67°
2026-04-21 05:03 53.36280 83.54538 836 ft 35 kts 68°
2026-04-21 05:03 53.36373 83.54912 835 ft 37 kts 67°
2026-04-21 05:03 53.36433 83.55147 836 ft 22 kts 68°
2026-04-21 05:03 53.36450 83.55380 835 ft 14 kts 177°
2026-04-21 05:04 53.36412 83.55307 838 ft 6 kts 246°
2026-04-21 05:04 53.36411 83.55306 838 ft 0 kts 246°